This demonstration page uses our WeatherBlox Daily Observations layout. Learn more.

Left ArrowRight Arrow

39.01783, -85.05884

Hourly Observations for October 5, 2019

Temp ( °F °C ) Dew Point ( °F °C ) Humidity (%) Winds ( mph kmh ) Pressure ( in mb ) Visibility ( mi km ) Precip ( " mm )
12:52 am 00:52 Mostly Clear 58 14.4 45 7.2 62 62 ENE 14 22 30.23 1024 10 16 0.00 0.00
1:52 am 01:52 Clear 55 12.8 44 6.7 67 67 E 14 22 30.22 1023 10 16 0.00 0.00
2:52 am 02:52 Clear 55 12.8 44 6.7 67 67 ENE 17 28 30.21 1023 10 16 0.00 0.00
3:52 am 03:52 Mostly Clear 54 12.2 43 6.1 67 67 E 15 24 30.19 1022 10 16 0.00 0.00
4:52 am 04:52 Clear 53 11.7 43 6.1 69 69 ENE 14 22 30.17 1022 10 16 0.00 0.00
5:52 am 05:52 Mostly Clear 52 11.1 43 6.1 72 72 ENE 14 22 30.16 1022 10 16 0.00 0.00
6:52 am 06:52 Partly Cloudy 51 10.6 43 6.1 74 74 ENE 10 17 30.16 1021 10 16 0.00 0.00
7:52 am 07:52 Mostly Sunny 51 10.6 43 6.1 74 74 NE 7 11 30.16 1021 10 16 0.00 0.00
8:52 am 08:52 Mostly Sunny 53 11.7 43 6.1 69 69 ENE 12 19 30.16 1021 10 16 0.00 0.00
9:52 am 09:52 Mostly Sunny 56 13.3 44 6.7 65 65 NE 10 17 30.16 1021 10 16 0.00 0.00
10:52 am 10:52 Mostly Sunny 59 15 45 7.2 60 60 NE 6 9 30.15 1021 10 16 0.00 0.00
11:52 am 11:52 Mostly Sunny 63 17.2 45 7.2 52 52 ENE 5 7 30.12 1020 10 16 0.00 0.00
12:52 pm 12:52 Partly Cloudy 68 20 46 7.8 45 45 ENE 7 11 30.09 1019 10 16 0.00 0.00
1:52 pm 13:52 Partly Cloudy 72 22.2 46 7.8 40 40 ESE 7 11 30.05 1018 10 16 0.00 0.00
2:52 pm 14:52 Mostly Sunny 75 23.9 46 7.8 36 36 E 6 9 30.03 1017 10 16 0.00 0.00
3:52 pm 15:52 Partly Cloudy 76 24.4 45 7.2 33 33 VRB 3 6 30.00 1016 10 16 0.00 0.00
4:52 pm 16:52 Mostly Sunny 78 25.6 44 6.7 30 30 Calm 29.99 1016 10 16 0.00 0.00
5:52 pm 17:52 Mostly Sunny 78 25.6 44 6.7 30 30 ESE 5 7 29.99 1016 10 16 0.00 0.00
6:52 pm 18:52 Mostly Sunny 76 24.4 45 7.2 33 33 ESE 3 6 29.98 1015 10 16 0.00 0.00
7:52 pm 19:52 Mostly Clear 72 22.2 46 7.8 40 40 Calm 29.97 1015 10 16 0.00 0.00
8:52 pm 20:52 Mostly Clear 69 20.6 47 8.3 45 45 Calm 29.98 1015 10 16 0.00 0.00
9:52 pm 21:52 Mostly Clear 66 18.9 48 8.9 52 52 Calm 29.99 1016 10 16 0.00 0.00
10:52 pm 22:52 Mostly Clear 65 18.3 47 8.3 52 52 Calm 29.98 1015 10 16 0.00 0.00
11:52 pm 23:52 Partly Cloudy 66 18.9 48 8.9 52 52 Calm 29.98 1015 10 16 0.00 0.00

Powered by AerisWeather